| time (UTC) | temp F | wind direction | speed MPH | gust MPH | rain 1hr in | rain 24hr in | rain mn in | humidity % | barometer mb |
| 20260906193329 | 96 | 360 | 1.0 | 11.0 | 0.00 | 0.00 | 0.00 | 58 | 1011.7 |
| 20260906192828 | 96 | 360 | 3.0 | 11.0 | 0.00 | 0.00 | 0.00 | 56 | 1011.7 |
| 20260906192346 | 97 | 360 | 4.0 | 8.0 | 0.00 | 0.00 | 0.00 | 54 | 1011.7 |
| 20260906191824 | 97 | 360 | 1.0 | 5.0 | 0.00 | 0.00 | 0.00 | 57 | 1011.6 |
| 20260906191323 | 96 | 360 | 2.0 | 5.0 | 0.00 | 0.00 | 0.00 | 55 | 1011.8 |
| 20260906190822 | 96 | 360 | 1.0 | 6.0 | 0.00 | 0.00 | 0.00 | 58 | 1011.8 |
| 20260906190323 | 96 | 360 | 3.0 | 6.0 | 0.00 | 0.00 | 0.00 | 56 | 1011.9 |
| 20260906185839 | 97 | 360 | 2.0 | 5.0 | 0.00 | 0.00 | 0.00 | 56 | 1011.9 |
| 20260906185319 | 98 | 360 | 1.0 | 5.0 | 0.00 | 0.00 | 0.00 | 55 | 1012.0 |
| 20260906184820 | 98 | 360 | 2.0 | 5.0 | 0.00 | 0.00 | 0.00 | 54 | 1012.0 |
| 20260906184312 | 97 | 360 | 2.0 | 6.0 | 0.00 | 0.00 | 0.00 | 56 | 1012.0 |
| 20260906183830 | 97 | 360 | 2.0 | 6.0 | 0.00 | 0.00 | 0.00 | 53 | 1012.0 |
| 20260906183330 | 98 | 360 | 3.0 | 9.0 | 0.00 | 0.00 | 0.00 | 54 | 1012.0 |
| 20260906182829 | 97 | 360 | 4.0 | 9.0 | 0.00 | 0.00 | 0.00 | 58 | 1012.1 |
| 20260906182326 | 96 | 360 | 3.0 | 6.0 | 0.00 | 0.00 | 0.00 | 57 | 1012.1 |
| 20260906181825 | 95 | 360 | 2.0 | 5.0 | 0.00 | 0.00 | 0.00 | 60 | 1012.3 |
| 20260906181325 | 95 | 360 | 3.0 | 5.0 | 0.00 | 0.00 | 0.00 | 59 | 1012.3 |
| 20260906180823 | 95 | 360 | 1.0 | 5.0 | 0.00 | 0.00 | 0.00 | 60 | 1012.4 |
| 20260906180321 | 95 | 360 | 2.0 | 5.0 | 0.00 | 0.00 | 0.00 | 58 | 1012.5 |
| 20260906175820 | 95 | 360 | 3.0 | 5.0 | 0.00 | 0.00 | 0.00 | 59 | 1012.6 |
| 20260906175339 | 94 | 360 | 2.0 | 6.0 | 0.00 | 0.00 | 0.00 | 59 | 1012.7 |
| 20260906174817 | 93 | 360 | 3.0 | 6.0 | 0.00 | 0.00 | 0.00 | 62 | 1012.8 |
| 20260906174317 | 92 | 360 | 3.0 | 4.0 | 0.00 | 0.00 | 0.00 | 62 | 1012.9 |
| 20260906173815 | 92 | 360 | 2.0 | 3.0 | 0.00 | 0.00 | 0.00 | 63 | 1013.0 |
| 20260906173315 | 92 | 360 | 1.0 | 4.0 | 0.00 | 0.00 | 0.00 | 65 | 1013.1 |
| 20260906172813 | 92 | 360 | 1.0 | 4.0 | 0.00 | 0.00 | 0.00 | 68 | 1013.2 |
| 20260906172345 | 92 | 360 | 1.0 | 4.0 | 0.00 | 0.00 | 0.00 | 66 | 1013.2 |
| 20260906171824 | 93 | 360 | 2.0 | 4.0 | 0.00 | 0.00 | 0.00 | 64 | 1013.4 |
| 20260906171322 | 93 | 360 | 2.0 | 4.0 | 0.00 | 0.00 | 0.00 | 63 | 1013.5 |
| 20260906170820 | 93 | 360 | 1.0 | 4.0 | 0.00 | 0.00 | 0.00 | 62 | 1013.7 |
| 20260906170320 | 94 | 360 | 0.0 | 2.0 | 0.00 | 0.00 | 0.00 | 61 | 1013.7 |
| 20260906165818 | 94 | 360 | 0.0 | 2.0 | 0.00 | 0.00 | 0.00 | 63 | 1013.8 |
| 20260906165336 | 94 | 360 | 1.0 | 4.0 | 0.00 | 0.00 | 0.00 | 61 | 1013.8 |
| 20260906164812 | 95 | 360 | 2.0 | 5.0 | 0.00 | 0.00 | 0.00 | 60 | 1013.8 |
| 20260906164314 | 95 | 360 | 2.0 | 5.0 | 0.00 | 0.00 | 0.00 | 60 | 1013.7 |
| 20260906163813 | 94 | 360 | 2.0 | 6.0 | 0.00 | 0.00 | 0.00 | 62 | 1013.8 |
| 20260906163330 | 94 | 360 | 4.0 | 6.0 | 0.00 | 0.00 | 0.00 | 62 | 1013.8 |
| 20260906162829 | 94 | 360 | 2.0 | 6.0 | 0.00 | 0.00 | 0.00 | 65 | 1013.8 |
| 20260906162327 | 93 | 360 | 2.0 | 6.0 | 0.00 | 0.00 | 0.00 | 65 | 1013.8 |
| 20260906161826 | 92 | 360 | 2.0 | 6.0 | 0.00 | 0.00 | 0.00 | 66 | 1013.8 |
| 20260906161323 | 92 | 360 | 2.0 | 5.0 | 0.00 | 0.00 | 0.00 | 69 | 1013.8 |
| 20260906160823 | 91 | 360 | 1.0 | 4.0 | 0.00 | 0.00 | 0.00 | 69 | 1013.9 |
| 20260906160344 | 91 | 360 | 2.0 | 8.0 | 0.00 | 0.00 | 0.00 | 73 | 1013.9 |
| 20260906155821 | 90 | 360 | 2.0 | 9.0 | 0.00 | 0.00 | 0.00 | 70 | 1014.0 |
| 20260906155319 | 90 | 360 | 3.0 | 9.0 | 0.00 | 0.00 | 0.00 | 72 | 1014.0 |
| 20260906154818 | 90 | 360 | 3.0 | 8.0 | 0.00 | 0.00 | 0.00 | 72 | 1013.9 |
| 20260906154317 | 90 | 360 | 3.0 | 6.0 | 0.00 | 0.00 | 0.00 | 72 | 1014.0 |
| 20260906153816 | 89 | 360 | 4.0 | 6.0 | 0.00 | 0.00 | 0.00 | 75 | 1014.0 |
| 20260906153335 | 88 | 360 | 2.0 | 8.0 | 0.00 | 0.00 | 0.00 | 77 | 1014.0 |
| 20260906152833 | 88 | 360 | 5.0 | 8.0 | 0.00 | 0.00 | 0.00 | 76 | 1014.0 |
| 20260906152350 | 88 | 360 | 1.0 | 8.0 | 0.00 | 0.00 | 0.00 | 79 | 1014.0 |
| 20260906151848 | 88 | 360 | 2.0 | 5.0 | 0.00 | 0.00 | 0.00 | 78 | 1013.9 |
| 20260906151327 | 88 | 360 | 1.0 | 5.0 | 0.00 | 0.00 | 0.00 | 78 | 1013.9 |
| 20260906150826 | 88 | 360 | 2.0 | 5.0 | 0.00 | 0.00 | 0.00 | 76 | 1013.9 |
| 20260906150326 | 88 | 360 | 2.0 | 6.0 | 0.00 | 0.00 | 0.00 | 79 | 1013.9 |
| 20260906145825 | 88 | 360 | 1.0 | 5.0 | 0.00 | 0.00 | 0.00 | 80 | 1013.8 |
| 20260906145324 | 88 | 360 | 3.0 | 6.0 | 0.00 | 0.00 | 0.00 | 80 | 1013.7 |
| 20260906144844 | 87 | 360 | 4.0 | 6.0 | 0.00 | 0.00 | 0.00 | 81 | 1013.7 |
| 20260906144320 | 87 | 360 | 3.0 | 5.0 | 0.00 | 0.00 | 0.00 | 83 | 1013.7 |
| 20260906143840 | 86 | 360 | 2.0 | 6.0 | 0.00 | 0.00 | 0.00 | 84 | 1013.7 |
| 20260906143335 | 85 | 360 | 2.0 | 5.0 | 0.00 | 0.00 | 0.00 | 86 | 1013.7 |
| 20260906142814 | 85 | 360 | 2.0 | 8.0 | 0.00 | 0.00 | 0.00 | 87 | 1013.7 |
| 20260906142333 | 84 | 360 | 3.0 | 8.0 | 0.00 | 0.00 | 0.00 | 87 | 1013.8 |
| 20260906141812 | 84 | 360 | 3.0 | 8.0 | 0.00 | 0.00 | 0.00 | 87 | 1013.8 |
| 20260906141331 | 84 | 360 | 4.0 | 6.0 | 0.00 | 0.00 | 0.00 | 88 | 1013.8 |
| 20260906140830 | 84 | 360 | 2.0 | 8.0 | 0.00 | 0.00 | 0.00 | 90 | 1013.6 |
| 20260906140330 | 83 | 360 | 4.0 | 8.0 | 0.00 | 0.00 | 0.00 | 91 | 1013.6 |
| 20260906135830 | 82 | 360 | 3.0 | 6.0 | 0.00 | 0.00 | 0.00 | 92 | 1013.7 |
| 20260906135329 | 82 | 360 | 2.0 | 5.0 | 0.00 | 0.00 | 0.00 | 93 | 1013.6 |
| 20260906134848 | 81 | 360 | 3.0 | 9.0 | 0.00 | 0.00 | 0.00 | 94 | 1013.5 |
| 20260906134327 | 81 | 360 | 3.0 | 9.0 | 0.00 | 0.00 | 0.00 | 94 | 1013.4 |
| 20260906133824 | 80 | 360 | 2.0 | 5.0 | 0.00 | 0.00 | 0.00 | 95 | 1013.4 |
| 20260906133323 | 80 | 360 | 2.0 | 5.0 | 0.00 | 0.00 | 0.00 | 96 | 1013.3 |
| 20260906132823 | 80 | 360 | 1.0 | 3.0 | 0.00 | 0.00 | 0.00 | 96 | 1013.4 |
| 20260906132323 | 79 | 360 | 2.0 | 3.0 | 0.00 | 0.00 | 0.00 | 96 | 1013.3 |
| 20260906131822 | 79 | 360 | 0.0 | 3.0 | 0.00 | 0.00 | 0.00 | 96 | 1013.2 |
| 20260906131323 | 79 | 360 | 1.0 | 3.0 | 0.00 | 0.00 | 0.00 | 96 | 1013.2 |
| 20260906130843 | 79 | 360 | 1.0 | 3.0 | 0.00 | 0.00 | 0.00 | 96 | 1013.1 |
| 20260906130321 | 78 | 360 | 1.0 | 2.0 | 0.00 | 0.00 | 0.00 | 95 | 1013.0 |
| 20260906125820 | 78 | 360 | 0.0 | 1.0 | 0.00 | 0.00 | 0.00 | 95 | 1012.9 |
| 20260906125338 | 78 | 360 | 0.0 | 1.0 | 0.00 | 0.00 | 0.00 | 95 | 1012.9 |
| 20260906124815 | 78 | 360 | 0.0 | 1.0 | 0.00 | 0.00 | 0.00 | 95 | 1012.9 |
| 20260906124316 | 78 | 360 | 0.0 | 2.0 | 0.00 | 0.00 | 0.00 | 95 | 1012.9 |
| 20260906123814 | 78 | 360 | 0.0 | 2.0 | 0.00 | 0.00 | 0.00 | 95 | 1012.9 |
| 20260906123314 | 78 | 360 | 0.0 | 1.0 | 0.00 | 0.00 | 0.00 | 95 | 1012.8 |
| 20260906122833 | 78 | 360 | 0.0 | 2.0 | 0.00 | 0.00 | 0.00 | 95 | 1012.7 |
| 20260906122330 | 78 | 360 | 1.0 | 2.0 | 0.00 | 0.00 | 0.00 | 95 | 1012.6 |
| 20260906121828 | 78 | 360 | 0.0 | 2.0 | 0.00 | 0.00 | 0.00 | 94 | 1012.5 |
| 20260906121327 | 78 | 360 | 0.0 | 2.0 | 0.00 | 0.00 | 0.00 | 94 | 1012.3 |
| 20260906120827 | 78 | 360 | 1.0 | 3.0 | 0.00 | 0.00 | 0.00 | 95 | 1012.2 |
| 20260906120325 | 78 | 360 | 0.0 | 3.0 | 0.00 | 0.00 | 0.00 | 94 | 1012.1 |
| 20260906115811 | 78 | 360 | 1.0 | 2.0 | 0.00 | 0.00 | 0.00 | 94 | 1012.0 |
| 20260906115328 | 78 | 360 | 0.0 | 2.0 | 0.00 | 0.00 | 0.00 | 94 | 1011.9 |
| 20260906114827 | 78 | 360 | 1.0 | 2.0 | 0.00 | 0.00 | 0.00 | 94 | 1011.9 |
| 20260906114313 | 79 | 360 | 1.0 | 2.0 | 0.00 | 0.00 | 0.00 | 94 | 1011.9 |
| 20260906113851 | 79 | 360 | 0.0 | 1.0 | 0.00 | 0.00 | 0.00 | 94 | 1011.8 |
| 20260906113330 | 79 | 360 | 0.0 | 0.0 | 0.00 | 0.00 | 0.00 | 94 | 1011.7 |
| 20260906112829 | 79 | 360 | 0.0 | 0.0 | 0.00 | 0.00 | 0.00 | 94 | 1011.7 |
| 20260906112328 | 79 | 360 | 0.0 | 0.0 | 0.00 | 0.00 | 0.00 | 94 | 1011.7 |
| 20260906111826 | 78 | 360 | 0.0 | 0.0 | 0.00 | 0.00 | 0.00 | 94 | 1011.6 |
| 20260906111324 | 79 | 360 | 0.0 | 0.0 | 0.00 | 0.00 | 0.00 | 93 | 1011.5 |
| 20260906110823 | 79 | 360 | 0.0 | 0.0 | 0.00 | 0.00 | 0.00 | 93 | 1011.3 |
| 20260906110339 | 79 | 360 | 0.0 | 0.0 | 0.00 | 0.00 | 0.00 | 93 | 1011.3 |
| 20260906105816 | 79 | 360 | 0.0 | 0.0 | 0.00 | 0.00 | 0.00 | 93 | 1011.3 |
| 20260906105316 | 79 | 360 | 0.0 | 2.0 | 0.00 | 0.00 | 0.00 | 93 | 1011.2 |
| 20260906104817 | 79 | 360 | 0.0 | 2.0 | 0.00 | 0.00 | 0.00 | 93 | 1011.3 |
| 20260906104314 | 79 | 360 | 1.0 | 2.0 | 0.00 | 0.00 | 0.00 | 93 | 1011.2 |
| 20260906103813 | 79 | 360 | 0.0 | 1.0 | 0.00 | 0.00 | 0.00 | 93 | 1011.1 |
| 20260906103313 | 79 | 360 | 0.0 | 0.0 | 0.00 | 0.00 | 0.00 | 93 | 1011.1 |
| 20260906102813 | 79 | 360 | 0.0 | 0.0 | 0.00 | 0.00 | 0.00 | 92 | 1011.1 |
| 20260906102312 | 79 | 360 | 0.0 | 0.0 | 0.00 | 0.00 | 0.00 | 92 | 1011.1 |
| 20260906101812 | 79 | 360 | 0.0 | 0.0 | 0.00 | 0.00 | 0.00 | 92 | 1011.1 |
| 20260906101351 | 79 | 360 | 0.0 | 0.0 | 0.00 | 0.00 | 0.00 | 92 | 1011.1 |
| 20260906100829 | 79 | 360 | 0.0 | 0.0 | 0.00 | 0.00 | 0.00 | 92 | 1011.2 |
| 20260906100328 | 79 | 360 | 0.0 | 0.0 | 0.00 | 0.00 | 0.00 | 92 | 1011.2 |
| 20260906095826 | 79 | 360 | 0.0 | 0.0 | 0.00 | 0.00 | 0.00 | 92 | 1011.1 |
| 20260906095326 | 79 | 360 | 0.0 | 0.0 | 0.00 | 0.00 | 0.00 | 91 | 1011.1 |
| 20260906094826 | 79 | 360 | 0.0 | 0.0 | 0.00 | 0.00 | 0.00 | 91 | 1011.1 |
| 20260906094348 | 80 | 360 | 0.0 | 0.0 | 0.00 | 0.00 | 0.00 | 91 | 1011.2 |
| 20260906093845 | 80 | 360 | 0.0 | 0.0 | 0.00 | 0.00 | 0.00 | 91 | 1011.3 |
| 20260906093325 | 80 | 360 | 0.0 | 0.0 | 0.00 | 0.00 | 0.00 | 91 | 1011.4 |
| 20260906092825 | 80 | 360 | 0.0 | 0.0 | 0.00 | 0.00 | 0.00 | 91 | 1011.4 |
| 20260906092345 | 80 | 360 | 0.0 | 0.0 | 0.00 | 0.00 | 0.00 | 91 | 1011.4 |
| 20260906091821 | 80 | 360 | 0.0 | 0.0 | 0.00 | 0.00 | 0.00 | 91 | 1011.5 |
| 20260906091322 | 80 | 360 | 0.0 | 1.0 | 0.00 | 0.00 | 0.00 | 90 | 1011.3 |
| 20260906090822 | 80 | 360 | 0.0 | 1.0 | 0.00 | 0.00 | 0.00 | 90 | 1011.2 |
| 20260906090323 | 80 | 360 | 0.0 | 1.0 | 0.00 | 0.00 | 0.00 | 90 | 1011.2 |
| 20260906085843 | 80 | 360 | 0.0 | 0.0 | 0.00 | 0.00 | 0.00 | 90 | 1011.1 |
| 20260906085322 | 80 | 360 | 0.0 | 0.0 | 0.00 | 0.00 | 0.00 | 90 | 1011.1 |
| 20260906084821 | 80 | 360 | 0.0 | 3.0 | 0.00 | 0.00 | 0.00 | 90 | 1011.1 |
| 20260906084319 | 80 | 360 | 1.0 | 3.0 | 0.00 | 0.00 | 0.00 | 90 | 1011.1 |
| 20260906083839 | 80 | 360 | 1.0 | 3.0 | 0.00 | 0.00 | 0.00 | 89 | 1011.1 |
| 20260906083338 | 80 | 360 | 1.0 | 2.0 | 0.00 | 0.00 | 0.00 | 89 | 1011.1 |
| 20260906082835 | 81 | 360 | 0.0 | 1.0 | 0.00 | 0.00 | 0.00 | 89 | 1011.1 |
| 20260906082313 | 81 | 360 | 0.0 | 1.0 | 0.00 | 0.00 | 0.00 | 89 | 1011.1 |
| 20260906081812 | 81 | 360 | 0.0 | 1.0 | 0.00 | 0.00 | 0.00 | 89 | 1011.2 |
| 20260906081312 | 81 | 360 | 0.0 | 4.0 | 0.00 | 0.00 | 0.00 | 89 | 1011.2 |
| 20260906080827 | 81 | 360 | 1.0 | 4.0 | 0.00 | 0.00 | 0.00 | 89 | 1011.3 |
| 20260906080326 | 81 | 360 | 2.0 | 4.0 | 0.00 | 0.00 | 0.00 | 88 | 1011.3 |
| 20260906075844 | 81 | 360 | 1.0 | 3.0 | 0.00 | 0.00 | 0.00 | 88 | 1011.4 |
| 20260906075322 | 81 | 360 | 0.0 | 1.0 | 0.00 | 0.00 | 0.00 | 88 | 1011.4 |
| 20260906074820 | 81 | 360 | 0.0 | 2.0 | 0.00 | 0.00 | 0.00 | 88 | 1011.5 |
| 20260906074320 | 81 | 360 | 0.0 | 2.0 | 0.00 | 0.00 | 0.00 | 87 | 1011.7 |
| 20260906073839 | 81 | 360 | 0.0 | 4.0 | 0.00 | 0.00 | 0.00 | 87 | 1011.8 |
| 20260906073318 | 81 | 360 | 1.0 | 4.0 | 0.00 | 0.00 | 0.00 | 87 | 1011.9 |
| 20260906072817 | 81 | 360 | 2.0 | 4.0 | 0.00 | 0.00 | 0.00 | 87 | 1011.9 |
| 20260906072317 | 82 | 360 | 1.0 | 5.0 | 0.00 | 0.00 | 0.00 | 86 | 1012.0 |
| 20260906071837 | 82 | 360 | 0.0 | 5.0 | 0.00 | 0.00 | 0.00 | 86 | 1012.0 |
| 20260906071315 | 82 | 360 | 2.0 | 5.0 | 0.00 | 0.00 | 0.00 | 86 | 1012.0 |
| 20260906070815 | 82 | 360 | 2.0 | 6.0 | 0.00 | 0.00 | 0.00 | 85 | 1012.1 |
| 20260906070313 | 82 | 360 | 3.0 | 6.0 | 0.00 | 0.00 | 0.00 | 85 | 1012.1 |
| 20260906065832 | 82 | 360 | 0.0 | 4.0 | 0.00 | 0.00 | 0.00 | 85 | 1012.1 |
| 20260906065331 | 82 | 360 | 1.0 | 4.0 | 0.00 | 0.00 | 0.00 | 85 | 1012.2 |
| 20260906064829 | 83 | 360 | 1.0 | 5.0 | 0.00 | 0.00 | 0.00 | 84 | 1012.3 |
| 20260906064328 | 83 | 360 | 3.0 | 5.0 | 0.00 | 0.00 | 0.00 | 84 | 1012.4 |
| 20260906063847 | 83 | 360 | 1.0 | 6.0 | 0.00 | 0.00 | 0.00 | 84 | 1012.4 |
| 20260906063326 | 83 | 360 | 3.0 | 6.0 | 0.00 | 0.00 | 0.00 | 84 | 1012.4 |
| 20260906062827 | 83 | 360 | 2.0 | 9.0 | 0.00 | 0.00 | 0.00 | 84 | 1012.3 |
| 20260906062326 | 83 | 360 | 4.0 | 8.0 | 0.00 | 0.00 | 0.00 | 83 | 1012.4 |
| 20260906061824 | 83 | 360 | 2.0 | 8.0 | 0.00 | 0.00 | 0.00 | 83 | 1012.4 |
| 20260906061344 | 83 | 360 | 2.0 | 9.0 | 0.00 | 0.00 | 0.00 | 83 | 1012.5 |
| 20260906060823 | 83 | 360 | 3.0 | 9.0 | 0.00 | 0.00 | 0.00 | 83 | 1012.6 |
| 20260906060321 | 83 | 360 | 2.0 | 8.0 | 0.00 | 0.00 | 0.00 | 83 | 1012.5 |
| 20260906055815 | 83 | 360 | 3.0 | 8.0 | 0.00 | 0.00 | 0.00 | 83 | 1012.5 |
| 20260906055315 | 83 | 360 | 2.0 | 6.0 | 0.00 | 0.00 | 0.00 | 83 | 1012.6 |
| 20260906054813 | 84 | 360 | 2.0 | 6.0 | 0.00 | 0.00 | 0.00 | 83 | 1012.5 |
| 20260906054331 | 84 | 360 | 1.0 | 4.0 | 0.00 | 0.00 | 0.00 | 82 | 1012.5 |
| 20260906053832 | 84 | 360 | 2.0 | 8.0 | 0.00 | 0.00 | 0.00 | 82 | 1012.4 |
| 20260906053329 | 84 | 360 | 3.0 | 9.0 | 0.00 | 0.00 | 0.00 | 82 | 1012.5 |
| 20260906052848 | 84 | 360 | 4.0 | 9.0 | 0.00 | 0.00 | 0.00 | 82 | 1012.5 |
| 20260906052327 | 84 | 360 | 2.0 | 10.0 | 0.00 | 0.00 | 0.00 | 81 | 1012.5 |
| 20260906051826 | 84 | 360 | 4.0 | 9.0 | 0.00 | 0.00 | 0.00 | 81 | 1012.4 |
| 20260906051325 | 84 | 360 | 2.0 | 5.0 | 0.00 | 0.00 | 0.00 | 80 | 1012.3 |
| 20260906050824 | 84 | 360 | 3.0 | 6.0 | 0.00 | 0.00 | 0.00 | 80 | 1012.3 |
| 20260906050322 | 85 | 360 | 4.0 | 6.0 | 0.00 | 0.00 | 0.00 | 80 | 1012.4 |
| 20260906045821 | 85 | 360 | 3.0 | 9.0 | 0.00 | 0.00 | 0.00 | 79 | 1012.4 |
| 20260906045322 | 85 | 360 | 4.0 | 9.0 | 0.00 | 0.00 | 0.00 | 79 | 1012.5 |
| 20260906044820 | 85 | 360 | 5.0 | 8.0 | 0.00 | 0.00 | 0.00 | 79 | 1012.5 |
| 20260906044336 | 85 | 360 | 4.0 | 10.0 | 0.00 | 0.00 | 0.00 | 78 | 1012.5 |
| 20260906043815 | 85 | 360 | 5.0 | 10.0 | 0.00 | 0.00 | 0.00 | 78 | 1012.4 |
| 20260906043314 | 85 | 360 | 5.0 | 9.0 | 0.00 | 0.00 | 0.00 | 78 | 1012.5 |
| 20260906042834 | 85 | 360 | 3.0 | 9.0 | 0.00 | 0.00 | 0.00 | 77 | 1012.4 |
| 20260906042312 | 86 | 360 | 5.0 | 9.0 | 0.00 | 0.00 | 0.00 | 77 | 1012.4 |
| 20260906041813 | 86 | 360 | 5.0 | 9.0 | 0.00 | 0.00 | 0.00 | 77 | 1012.4 |
| 20260906041354 | 86 | 360 | 4.0 | 8.0 | 0.00 | 0.00 | 0.00 | 76 | 1012.3 |
| 20260906040833 | 86 | 360 | 2.0 | 8.0 | 0.00 | 0.00 | 0.00 | 76 | 1012.3 |
| 20260906040332 | 86 | 360 | 3.0 | 8.0 | 0.00 | 0.00 | 0.00 | 76 | 1012.3 |
| 20260906035832 | 86 | 360 | 4.0 | 10.0 | 0.00 | 0.00 | 0.00 | 75 | 1012.3 |
| 20260906035332 | 86 | 360 | 4.0 | 11.0 | 0.00 | 0.00 | 0.00 | 75 | 1012.2 |
| 20260906034813 | 86 | 360 | 4.0 | 11.0 | 0.00 | 0.00 | 0.00 | 75 | 1012.1 |
| 20260906034332 | 86 | 360 | 5.0 | 11.0 | 0.00 | 0.00 | 0.00 | 74 | 1012.0 |
| 20260906033831 | 87 | 360 | 4.0 | 6.0 | 0.00 | 0.00 | 0.00 | 74 | 1012.0 |
| 20260906033351 | 87 | 360 | 3.0 | 8.0 | 0.00 | 0.00 | 0.00 | 74 | 1012.1 |
| 20260906032848 | 87 | 360 | 4.0 | 8.0 | 0.00 | 0.00 | 0.00 | 73 | 1012.1 |
| 20260906032325 | 87 | 360 | 4.0 | 9.0 | 0.00 | 0.00 | 0.00 | 73 | 1012.1 |
| 20260906031825 | 87 | 360 | 4.0 | 9.0 | 0.00 | 0.00 | 0.00 | 73 | 1012.1 |
| 20260906031325 | 87 | 360 | 3.0 | 11.0 | 0.00 | 0.00 | 0.00 | 73 | 1012.0 |
| 20260906030822 | 87 | 360 | 6.0 | 10.0 | 0.00 | 0.00 | 0.00 | 73 | 1011.8 |
| 20260906030321 | 88 | 360 | 3.0 | 11.0 | 0.00 | 0.00 | 0.00 | 72 | 1011.8 |
| 20260906025820 | 88 | 360 | 5.0 | 11.0 | 0.00 | 0.00 | 0.00 | 72 | 1011.6 |
| 20260906025319 | 88 | 360 | 6.0 | 10.0 | 0.00 | 0.00 | 0.00 | 72 | 1011.5 |
| 20260906024842 | 88 | 360 | 4.0 | 9.0 | 0.00 | 0.00 | 0.00 | 72 | 1011.4 |
| 20260906024320 | 88 | 360 | 4.0 | 9.0 | 0.00 | 0.00 | 0.00 | 72 | 1011.3 |
| 20260906023821 | 88 | 360 | 3.0 | 8.0 | 0.00 | 0.00 | 0.00 | 71 | 1011.1 |
| 20260906023319 | 88 | 360 | 3.0 | 9.0 | 0.00 | 0.00 | 0.00 | 71 | 1011.0 |
| 20260906022818 | 88 | 360 | 4.0 | 11.0 | 0.00 | 0.00 | 0.00 | 71 | 1011.0 |
| 20260906022318 | 88 | 360 | 5.0 | 11.0 | 0.00 | 0.00 | 0.00 | 70 | 1010.9 |
| 20260906021838 | 88 | 360 | 3.0 | 9.0 | 0.00 | 0.00 | 0.00 | 70 | 1010.9 |
| 20260906021315 | 88 | 360 | 4.0 | 9.0 | 0.00 | 0.00 | 0.00 | 69 | 1010.8 |
| 20260906020836 | 88 | 360 | 3.0 | 6.0 | 0.00 | 0.00 | 0.00 | 68 | 1010.7 |
| 20260906020314 | 88 | 360 | 3.0 | 8.0 | 0.00 | 0.00 | 0.00 | 68 | 1010.6 |
| 20260906015813 | 88 | 360 | 3.0 | 6.0 | 0.00 | 0.00 | 0.00 | 67 | 1010.5 |
| 20260906015313 | 88 | 360 | 3.0 | 6.0 | 0.00 | 0.00 | 0.00 | 66 | 1010.4 |
| 20260906014812 | 89 | 360 | 2.0 | 9.0 | 0.00 | 0.00 | 0.00 | 65 | 1010.3 |
| 20260906014314 | 89 | 360 | 3.0 | 9.0 | 0.00 | 0.00 | 0.00 | 64 | 1010.2 |
| 20260906013814 | 89 | 360 | 4.0 | 9.0 | 0.00 | 0.00 | 0.00 | 64 | 1010.1 |
| 20260906013335 | 90 | 360 | 5.0 | 9.0 | 0.00 | 0.00 | 0.00 | 63 | 1010.1 |
| 20260906012832 | 90 | 360 | 4.0 | 9.0 | 0.00 | 0.00 | 0.00 | 63 | 1010.1 |
| 20260906012313 | 90 | 360 | 5.0 | 12.0 | 0.00 | 0.00 | 0.00 | 62 | 1009.9 |
| 20260906011832 | 91 | 360 | 5.0 | 12.0 | 0.00 | 0.00 | 0.00 | 62 | 1009.9 |
| 20260906011331 | 91 | 360 | 4.0 | 10.0 | 0.00 | 0.00 | 0.00 | 61 | 1009.9 |
| 20260906010831 | 92 | 360 | 6.0 | 13.0 | 0.00 | 0.00 | 0.00 | 61 | 1009.9 |
| 20260906010331 | 93 | 360 | 7.0 | 13.0 | 0.00 | 0.00 | 0.00 | 59 | 1009.9 |
| 20260906005826 | 93 | 360 | 6.0 | 11.0 | 0.00 | 0.00 | 0.00 | 57 | 1009.9 |
| 20260906005326 | 93 | 360 | 4.0 | 10.0 | 0.00 | 0.00 | 0.00 | 57 | 1009.8 |
| 20260906004826 | 93 | 360 | 4.0 | 10.0 | 0.00 | 0.00 | 0.00 | 56 | 1009.8 |
| 20260906004325 | 93 | 360 | 3.0 | 10.0 | 0.00 | 0.00 | 0.00 | 56 | 1009.7 |
| 20260906003825 | 94 | 360 | 4.0 | 10.0 | 0.00 | 0.00 | 0.00 | 56 | 1009.8 |
| 20260906003344 | 94 | 360 | 3.0 | 10.0 | 0.00 | 0.00 | 0.00 | 55 | 1009.7 |
| 20260906002823 | 94 | 360 | 3.0 | 9.0 | 0.00 | 0.00 | 0.00 | 55 | 1009.6 |
| 20260906002323 | 94 | 360 | 2.0 | 8.0 | 0.00 | 0.00 | 0.00 | 55 | 1009.5 |
| 20260906001823 | 95 | 360 | 3.0 | 9.0 | 0.00 | 0.00 | 0.00 | 54 | 1009.6 |
| 20260906001324 | 95 | 360 | 3.0 | 12.0 | 0.00 | 0.00 | 0.00 | 54 | 1009.5 |
| 20260906000842 | 95 | 360 | 4.0 | 12.0 | 0.00 | 0.00 | 0.00 | 53 | 1009.6 |
| 20260906000320 | 95 | 360 | 4.0 | 11.0 | 0.00 | 0.00 | 0.00 | 53 | 1009.6 |
| 20260905235820 | 95 | 360 | 3.0 | 10.0 | 0.00 | 0.00 | 0.00 | 54 | 1009.5 |
| 20260905235319 | 95 | 360 | 3.0 | 10.0 | 0.00 | 0.00 | 0.00 | 54 | 1009.5 |
| 20260905234817 | 95 | 360 | 6.0 | 11.0 | 0.00 | 0.00 | 0.00 | 54 | 1009.4 |
| 20260905234317 | 95 | 360 | 4.0 | 11.0 | 0.00 | 0.00 | 0.00 | 53 | 1009.4 |
| 20260905233816 | 95 | 360 | 5.0 | 11.0 | 0.00 | 0.00 | 0.00 | 53 | 1009.3 |
| 20260905233314 | 95 | 360 | 5.0 | 10.0 | 0.00 | 0.00 | 0.00 | 54 | 1009.3 |
| 20260905232814 | 95 | 360 | 3.0 | 13.0 | 0.00 | 0.00 | 0.00 | 54 | 1009.4 |
| 20260905232314 | 95 | 360 | 4.0 | 14.0 | 0.00 | 0.00 | 0.00 | 54 | 1009.4 |
| 20260905231814 | 95 | 360 | 4.0 | 14.0 | 0.00 | 0.00 | 0.00 | 54 | 1009.2 |
| 20260905231332 | 95 | 360 | 3.0 | 9.0 | 0.00 | 0.00 | 0.00 | 54 | 1009.2 |
| 20260905230851 | 95 | 360 | 2.0 | 11.0 | 0.00 | 0.00 | 0.00 | 53 | 1009.2 |
| 20260905230327 | 95 | 360 | 2.0 | 11.0 | 0.00 | 0.00 | 0.00 | 52 | 1009.2 |
| 20260905225827 | 96 | 360 | 1.0 | 6.0 | 0.00 | 0.00 | 0.00 | 52 | 1009.2 |
| 20260905225326 | 96 | 360 | 2.0 | 5.0 | 0.00 | 0.00 | 0.00 | 50 | 1009.3 |
| 20260905224826 | 97 | 360 | 2.0 | 9.0 | 0.00 | 0.00 | 0.00 | 50 | 1009.1 |
| 20260905224324 | 98 | 360 | 3.0 | 9.0 | 0.00 | 0.00 | 0.00 | 49 | 1009.0 |
| 20260905223331 | 99 | 360 | 2.0 | 8.0 | 0.00 | 0.00 | 0.00 | 45 | 1009.0 |
| 20260905222831 | 100 | 360 | 3.0 | 6.0 | 0.00 | 0.00 | 0.00 | 44 | 1009.0 |
| 20260905222332 | 100 | 360 | 1.0 | 6.0 | 0.00 | 0.00 | 0.00 | 44 | 1009.0 |
| 20260905221813 | 100 | 360 | 1.0 | 8.0 | 0.00 | 0.00 | 0.00 | 45 | 1009.0 |
| 20260905221351 | 101 | 360 | 2.0 | 8.0 | 0.00 | 0.00 | 0.00 | 42 | 1009.1 |
| 20260905220850 | 101 | 360 | 2.0 | 9.0 | 0.00 | 0.00 | 0.00 | 46 | 1009.0 |
| 20260905220317 | 101 | 360 | 4.0 | 10.0 | 0.00 | 0.00 | 0.00 | 46 | 1009.1 |
| 20260905215853 | 100 | 360 | 3.0 | 10.0 | 0.00 | 0.00 | 0.00 | 45 | 1009.2 |
| 20260905215331 | 100 | 360 | 2.0 | 8.0 | 0.00 | 0.00 | 0.00 | 48 | 1009.2 |
| 20260905214830 | 99 | 360 | 2.0 | 5.0 | 0.00 | 0.00 | 0.00 | 46 | 1009.2 |
| 20260905214348 | 100 | 360 | 3.0 | 9.0 | 0.00 | 0.00 | 0.00 | 45 | 1009.1 |
| 20260905213825 | 101 | 360 | 3.0 | 9.0 | 0.00 | 0.00 | 0.00 | 45 | 1009.1 |
| 20260905213324 | 102 | 360 | 3.0 | 10.0 | 0.00 | 0.00 | 0.00 | 42 | 1009.2 |
| 20260905212823 | 103 | 360 | 3.0 | 9.0 | 0.00 | 0.00 | 0.00 | 41 | 1009.2 |
| 20260905212323 | 103 | 360 | 3.0 | 8.0 | 0.00 | 0.00 | 0.00 | 41 | 1009.1 |
| 20260905211822 | 102 | 360 | 4.0 | 8.0 | 0.00 | 0.00 | 0.00 | 44 | 1009.1 |
| 20260905211323 | 102 | 360 | 1.0 | 6.0 | 0.00 | 0.00 | 0.00 | 42 | 1009.2 |
| 20260905210842 | 101 | 360 | 3.0 | 6.0 | 0.00 | 0.00 | 0.00 | 45 | 1009.4 |
| 20260905210318 | 101 | 360 | 2.0 | 11.0 | 0.00 | 0.00 | 0.00 | 44 | 1009.5 |
| 20260905205818 | 101 | 360 | 4.0 | 11.0 | 0.00 | 0.00 | 0.00 | 43 | 1009.5 |
| 20260905205317 | 100 | 360 | 3.0 | 5.0 | 0.00 | 0.00 | 0.00 | 46 | 1009.6 |
| 20260905204814 | 99 | 360 | 1.0 | 5.0 | 0.00 | 0.00 | 0.00 | 45 | 1009.7 |
| 20260905204313 | 99 | 360 | 1.0 | 6.0 | 0.00 | 0.00 | 0.00 | 44 | 1009.7 |
| 20260905203831 | 100 | 360 | 4.0 | 9.0 | 0.00 | 0.00 | 0.00 | 43 | 1009.8 |
| 20260905203330 | 101 | 360 | 4.0 | 9.0 | 0.00 | 0.00 | 0.00 | 44 | 1010.0 |
| 20260905202827 | 101 | 360 | 2.0 | 13.0 | 0.00 | 0.00 | 0.00 | 48 | 1010.1 |
| 20260905202326 | 101 | 360 | 4.0 | 12.0 | 0.00 | 0.00 | 0.00 | 44 | 1010.2 |
| 20260905201824 | 101 | 360 | 1.0 | 9.0 | 0.00 | 0.00 | 0.00 | 44 | 1010.3 |
| 20260905201345 | 100 | 360 | 5.0 | 11.0 | 0.00 | 0.00 | 0.00 | 44 | 1010.5 |
| 20260905200822 | 100 | 360 | 6.0 | 10.0 | 0.00 | 0.00 | 0.00 | 47 | 1010.5 |
| 20260905200343 | 100 | 360 | 3.0 | 8.0 | 0.00 | 0.00 | 0.00 | 47 | 1010.5 |
| 20260905195822 | 100 | 360 | 1.0 | 6.0 | 0.00 | 0.00 | 0.00 | 44 | 1010.7 |
| 20260905195323 | 100 | 360 | 2.0 | 6.0 | 0.00 | 0.00 | 0.00 | 51 | 1010.8 |
| 20260905194823 | 99 | 360 | 2.0 | 4.0 | 0.00 | 0.00 | 0.00 | 47 | 1010.9 |
| 20260905194324 | 99 | 360 | 1.0 | 5.0 | 0.00 | 0.00 | 0.00 | 51 | 1010.9 |
| 20260905193825 | 99 | 360 | 2.0 | 9.0 | 0.00 | 0.00 | 0.00 | 46 | 1011.0 |